Weather History for Nellis AFB, NV

Change the Weather History Date:

Sunday, November 24, 2013

  Actual Average Record
Temperature  
Mean Temperature 50 °F -  
Max Temperature 56 °F 61 °F 73 °F (1998)
Min Temperature 43 °F 38 °F 32 °F (2003)
Degree Days  
Heating Degree Days 16    
Moisture  
Dew Point 42 °F    
Average Humidity 80    
Maximum Humidity 100    
Minimum Humidity 54    
Precipitation  
Precipitation 0.00 in - - ()
Sea Level Pressure  
Sea Level Pressure 30.16 in    
Wind  
Wind Speed 2 mph (ESE)    
Max Wind Speed 5 mph    
Max Gust Speed -    
Visibility 10 miles    
Events Rain    
Averages and records for this station are not official NWS values.
T = Trace of Precipitation, MM = Missing Value Source: NWS Daily Summary

Daily Weather History Graph

Daily Weather History Graph

Search for Another Location

Airport:

Trip Planner

Search our weather history database for the weather conditions in past years. The results will help you decide how hot, cold, wet, or windy it might be!

Date:

Astronomy

Nov. 24, 2013 Rise Set
Actual Time 6:26 AM PST 4:27 PM PST
Civil Twilight 5:58 AM PST 4:55 PM PST
Nautical Twilight 5:27 AM PST 5:26 PM PST
Astronomical Twilight 4:56 AM PST 5:57 PM PST
Moon 10:51 PM PST (11/24) 11:21 AM PST (11/24)
Length of Visible Light 10h 56m
Length of Day
10h 00m
Waning Gibbous, 59% of the Moon is Illuminated
Nov 24
Waning Gibbous
Nov 25
Last Quarter
Dec 2
New
Dec 9
First Quarter
Dec 17
Full

Hourly Weather History & Observations

Time (PST) Temp. Windchill Dew Point Humidity Pressure Visibility Wind Dir Wind Speed Gust Speed Precip Events Conditions
12:58 AM 46.6 °F - 43.9 °F 90% 30.14 in 10.0 mi NE 2.3 mph - N/A   Overcast
1:54 AM 46.4 °F 45.2 °F 42.8 °F 87% 30.14 in 10.0 mi West 3.5 mph - N/A Rain Light Rain
1:58 AM 46.4 °F 45.2 °F 43.5 °F 90% 30.14 in 10.0 mi West 3.5 mph - 0.00 in Rain Light Rain
2:08 AM 46.4 °F - 44.6 °F 93% 30.14 in 10.0 mi Calm Calm - N/A   Overcast
2:58 AM 46.4 °F - 46.2 °F 99% 30.13 in 10.0 mi East 1.2 mph - 0.00 in   Overcast
3:58 AM 46.6 °F - 43.5 °F 89% 30.13 in 10.0 mi East 3.5 mph - N/A   Overcast
4:58 AM 46.4 °F - 43.9 °F 91% 30.14 in 10.0 mi NNE 2.3 mph - N/A   Overcast
5:08 AM 46.4 °F - 46.4 °F 100% 30.14 in 10.0 mi Calm Calm - N/A   Overcast
5:58 AM 46.6 °F - 44.8 °F 93% 30.16 in 10.0 mi Calm Calm - N/A   Overcast
6:18 AM 46.4 °F - 46.4 °F 100% 30.15 in 10.0 mi East 1.2 mph - N/A   Overcast
6:28 AM 46.4 °F - 44.6 °F 93% 30.15 in 10.0 mi Calm Calm - N/A   Overcast
6:58 AM 48.2 °F - 38.5 °F 69% 30.16 in 10.0 mi South 2.3 mph - N/A   Overcast
7:58 AM 47.8 °F - 40.6 °F 76% 30.18 in 10.0 mi WNW 2.3 mph - N/A   Mostly Cloudy
8:58 AM 48.6 °F - 42.1 °F 78% 30.20 in 10.0 mi South 3.5 mph - N/A   Overcast
9:58 AM 50.0 °F - 40.1 °F 69% 30.20 in 10.0 mi SW 2.3 mph - N/A   Mostly Cloudy
10:58 AM 51.3 °F - 39.0 °F 63% 30.19 in 10.0 mi Calm Calm - N/A   Mostly Cloudy
11:58 AM 53.6 °F - 40.1 °F 60% 30.16 in 10.0 mi Calm Calm - N/A   Partly Cloudy
12:58 PM 54.9 °F - 39.0 °F 55% 30.13 in 10.0 mi ESE 4.6 mph - N/A   Partly Cloudy
1:58 PM 55.6 °F - 39.4 °F 55% 30.13 in 10.0 mi East 3.5 mph - N/A   Clear
2:58 PM 56.8 °F - 40.1 °F 54% 30.13 in 10.0 mi Calm Calm - N/A   Clear
3:58 PM 56.5 °F - 41.0 °F 56% 30.14 in 10.0 mi East 4.6 mph - N/A   Clear
4:58 PM 52.9 °F - 42.4 °F 68% 30.15 in 10.0 mi SSW 4.6 mph - N/A   Clear
5:58 PM 52.0 °F - 41.5 °F 68% 30.17 in 10.0 mi SW 2.3 mph - N/A   Clear
6:58 PM 49.6 °F - 43.2 °F 78% 30.19 in 10.0 mi North 3.5 mph - N/A   Clear
7:58 PM 47.7 °F - 43.7 °F 86% 30.20 in 10.0 mi NNE 2.3 mph - N/A   Clear
8:58 PM 46.6 °F - 43.7 °F 90% 30.20 in 10.0 mi Calm Calm - N/A   Clear
9:58 PM 46.8 °F - 42.6 °F 85% 30.20 in 10.0 mi Variable 2.3 mph - N/A   Clear
10:58 PM 43.3 °F 40.7 °F 42.4 °F 97% 30.20 in 10.0 mi East 4.6 mph - N/A   Clear
11:58 PM 43.7 °F - 41.5 °F 92% 30.20 in 10.0 mi Calm Calm - N/A   Clear